Location: Gleizolles
(44.4833°N, 6.7667°E)
Time: 02:11:28
(UTC+00:00)

S-56A Canister/Altair - Visible Passes

Search period start: 13 June 2024 00:00
Search period end: 23 June 2024 00:00
Orbit: 637 x 2489 km, 38.9° (Epoch: 12 June)

Date Brightness Start Highest point End Pass type
(mag) Time Alt. Az. Time Alt. Az. Time Alt. Az.
13 Jun 9.9 00:55:28 10° WSW 01:09:10 70° S 01:23:56 10° E visible
13 Jun 10.0 03:00:57 10° W 03:15:34 64° SSW 03:29:05 10° ESE visible
13 Jun 10.5 20:19:27 10° SSE 20:25:58 18° SE 20:33:34 10° E visible
13 Jun 9.9 22:18:17 10° SW 22:29:12 46° SSE 22:42:53 10° E visible
14 Jun 9.8 00:21:31 10° WSW 00:34:40 68° S 00:49:35 10° E visible
14 Jun 10.0 02:26:40 10° W 02:41:05 66° SSW 02:55:06 10° ESE visible
14 Jun 10.5 19:47:35 10° SSE 19:52:18 14° SE 19:57:37 10° E visible
14 Jun 9.9 21:44:56 10° SSW 21:55:06 42° SE 22:08:10 10° E visible
14 Jun 9.8 23:47:40 10° WSW 00:00:12 66° SSE 00:15:08 10° E visible
15 Jun 10.0 01:52:28 10° W 02:06:34 68° S 02:21:00 10° ESE visible
15 Jun 9.9 21:11:43 10° SSW 21:21:07 37° SE 21:33:22 10° E visible
15 Jun 9.7 23:13:55 10° WSW 23:25:49 64° SSE 23:40:37 10° E visible
16 Jun 9.9 01:18:22 10° W 01:32:02 69° S 01:46:47 10° ESE visible
16 Jun 9.9 20:38:37 10° SSW 20:47:13 32° SE 20:58:29 10° E visible
16 Jun 9.7 22:40:16 10° WSW 22:51:30 61° SSE 23:06:01 10° E visible
17 Jun 9.8 00:44:22 10° W 00:57:32 70° S 01:12:29 10° ESE visible
17 Jun 10.1 02:49:45 10° W 03:03:37 53° SSW 03:17:14 10° SE visible
17 Jun 10.0 20:05:42 10° S 20:13:26 28° SE 20:23:31 10° E visible
17 Jun 9.6 22:06:44 10° SW 22:17:16 57° SSE 22:31:22 10° E visible
18 Jun 9.8 00:10:28 10° W 00:23:02 70° S 00:38:04 10° ESE visible
18 Jun 10.0 02:15:32 10° W 02:29:12 56° SSW 02:43:17 10° SE visible
18 Jun 9.6 21:33:17 10° SW 21:43:08 53° SSE 21:56:40 10° E visible
18 Jun 9.7 23:36:39 10° WSW 23:48:36 70° S 00:03:34 10° E visible
19 Jun 10.0 01:41:25 10° W 01:54:45 59° SSW 02:09:12 10° SE visible
19 Jun 9.5 20:59:57 10° SW 21:09:06 49° SSE 21:21:56 10° E visible
19 Jun 9.6 23:02:56 10° WSW 23:14:14 69° S 23:29:00 10° E visible
20 Jun 9.9 01:07:24 10° W 01:20:18 62° SSW 01:35:00 10° ESE visible
20 Jun 10.4 03:13:11 10° W 03:25:41 37° SW 03:38:13 10° SSE visible
20 Jun 9.5 20:26:43 10° SW 20:35:11 44° SSE 20:47:09 10° E visible
20 Jun 9.5 22:29:18 10° WSW 22:39:55 67° S 22:54:22 10° E visible
21 Jun 9.8 00:33:27 10° W 00:45:52 64° SSW 01:00:41 10° ESE visible
21 Jun 10.3 02:38:51 10° W 02:51:25 40° SW 03:04:30 10° SSE visible
21 Jun 9.5 19:53:35 10° SSW 20:01:21 39° SE 20:12:21 10° E visible
21 Jun 9.4 21:55:45 10° WSW 22:05:42 65° S 22:19:41 10° E visible
21 Jun 9.7 23:59:37 10° W 00:11:27 65° S 00:26:16 10° ESE visible
22 Jun 10.1 02:04:39 10° W 02:17:07 43° SSW 02:30:38 10° SSE visible
22 Jun 9.3 21:22:17 10° WSW 21:31:34 62° SSE 21:44:58 10° E visible
22 Jun 9.6 23:25:52 10° W 23:37:05 66° S 23:51:45 10° ESE visible
